This demonstration page uses our WeatherBlox Daily Observations layout. Learn more.

Left ArrowRight Arrow

39.29038, -76.61219

Hourly Observations for July 24, 2021

Temp ( °F °C ) Dew Point ( °F °C ) Humidity (%) Winds ( mph kmh ) Pressure ( in mb ) Visibility ( mi km ) Precip ( " mm )
12:54 am 00:54 Mostly Clear 63 17.2 57 13.9 81 81 W 3 6 30.12 1020 10 16 N/A
1:54 am 01:54 Mostly Clear 67 19.4 57 13.9 71 71 N N/A 30.10 1019 10 16 N/A
2:54 am 02:54 Mostly Clear 62 16.7 56 13.3 80 80 W 3 6 30.09 1019 10 16 N/A
3:54 am 03:54 Mostly Clear 63 17.2 57 13.9 81 81 N N/A 30.09 1019 10 16 N/A
4:54 am 04:54 Mostly Clear 63 17.2 57 13.9 81 81 N N/A 30.08 1019 10 16 N/A
5:54 am 05:54 Mostly Clear 63 17.2 56 13.3 78 78 N N/A 30.09 1019 10 16 N/A
6:54 am 06:54 Partly Cloudy 63 17.2 57 13.9 81 81 W 3 6 30.11 1020 10 16 N/A
7:54 am 07:54 Partly Cloudy 68 20 60 15.6 76 76 N N/A 30.11 1020 10 16 N/A
8:54 am 08:54 Partly Cloudy 78 25.6 56 13.3 47 47 VRB 3 6 30.11 1020 10 16 N/A
9:54 am 09:54 Partly Cloudy 81 27.2 55 12.8 41 41 SSW 5 7 30.10 1019 10 16 N/A
10:54 am 10:54 Mostly Cloudy 84 28.9 55 12.8 37 37 VRB 7 11 30.09 1019 10 16 N/A
11:54 am 11:54 Partly Cloudy 85 29.4 57 13.9 39 39 SSE 8 13 30.09 1019 10 16 N/A
12:54 pm 12:54 Mostly Cloudy 85 29.4 57 13.9 39 39 VRB 3 6 30.09 1019 10 16 N/A
1:54 pm 13:54 Mostly Cloudy 86 30 58 14.4 39 39 SE 9 15 30.08 1019 10 16 N/A
2:54 pm 14:54 Mostly Cloudy 88 31.1 60 15.6 39 39 SSE 10 17 30.06 1018 10 16 N/A
3:54 pm 15:54 Cloudy 84 28.9 61 16.1 46 46 SSE 9 15 30.05 1018 10 16 N/A
4:54 pm 16:54 Mostly Cloudy 86 30 59 15 40 40 SE 13 20 30.03 1017 10 16 N/A
5:54 pm 17:54 Cloudy 83 28.3 60 15.6 46 46 SSE 12 19 30.03 1017 10 16 N/A
6:54 pm 18:54 Mostly Cloudy 81 27.2 60 15.6 49 49 SSE 6 9 30.01 1016 10 16 N/A
7:54 pm 19:54 Cloudy 80 26.7 63 17.2 56 56 SSE 7 11 30.01 1016 10 16 N/A
8:54 pm 20:54 Cloudy 79 26.1 64 17.8 60 60 VRB 6 9 30.01 1016 10 16 N/A
9:54 pm 21:54 Cloudy 78 25.6 64 17.8 62 62 SSE 7 11 30.01 1016 10 16 N/A
10:54 pm 22:54 Mostly Cloudy 77 25 63 17.2 62 62 SSE 7 11 30.00 1016 10 16 N/A
11:54 pm 23:54 Mostly Cloudy 77 25 62 16.7 60 60 S 6 9 30.00 1016 10 16 N/A

Powered by AerisWeather